Regional Weather Roundup
Issued by NWS Grand Forks, ND

Home | Current Version | Previous Version | Text Only | Print | Product List | Glossary Off
Versions: 1 2 3 4 5 6 7 8 9 10 11 12 13 14 15 16 17 18 19 20 21 22 23 24 25 26 27 28 29 30 31 32 33 34 35 36 37 38 39 40 41 42 43 44 45 46 47 48 49 50

795
ASUS43 KFGF 230131
RWRFGF
PRAIRIE TO PINES  WEATHER ROUNDUP
NATIONAL WEATHER SERVICE EASTERN NORTH DAKOTA/GRAND FORKS ND
800 PM CDT TUE MAY 22 2018

 **SATELLITE DATA USED TO AUGMENT SKY COVER AT AUTOMATED STATIONS**
 *****  WEATHER ACROSS EASTERN NORTH DAKOTA  *****

CITY           SKY/WX    TMP DP  RH WIND       PRES   REMARKS
GRAND FORKS    FAIR      78  55  44 SE10      29.93R
GRAND FRKS AFB FAIR      77  54  43 SE8       29.94R
GRAND FRKS NWS   N/A     77  55  45 SE3       29.91S
DEVILS LAKE    FAIR      76  53  44 E6        29.93S
FARGO          FAIR      80  54  40 E13       29.93S
WAHPETON ARPT  FAIR      79  48  34 SE8       29.94S
$$

 ***** WEATHER ACROSS CENTRAL AND WESTERN NORTH DAKOTA  *****

CITY           SKY/WX    TMP DP  RH WIND       PRES   REMARKS
BISMARCK       FAIR      76  58  53 S6        29.88S
MINOT          CLOUDY    82  46  28 S6        29.88S
JAMESTOWN      FAIR      76  55  48 SE9       29.91R
MINOT AFB      CLOUDY    76  51  41 NW8       29.87R
GARRISON         N/A     80  43  26 E9        29.88S
WILLISTON      CLOUDY    77  49  37 NE9       29.90S
DICKINSON      FAIR      74  57  55 SE7       29.88S
HETTINGER      TSTM      59  55  87 E26G41    29.93R
$$

 *****  OTHER AIRPORT OBSERVATIONS IN OUR AREA  *****

CITY           SKY/WX    TMP DP  RH WIND       PRES   REMARKS
WALHALLA       FAIR      75  55  50 SE6       29.93R
GRAFTON AIRPOR FAIR      75  57  53 SE7       29.95S
VALLEY CITY AR FAIR      77  55  47 SE8       29.94S
CANDO          FAIR      77  48  36 SE9       29.94S
CAVALIER APRT    N/A     77  54  44 SE5       29.93R
GWINNER          N/A     79  50  36 SE8       29.92S
SHEYENNE NWR     N/A     74  56  52 SE5       29.95S
ROLLA          FAIR      77  50  38 SE10      29.94R
 ***** THE ABOVE OBSERVATIONS ARE NON NWS ARE NOT QUALITY
       CONTROLLED AND MAY MIS-REPORT RAIN FOR SNOW...
$$

  *****  WEATHER ACROSS NORTHERN MINNESOTA  *****

CITY           SKY/WX    TMP DP  RH WIND       PRES   REMARKS
FLAG ISLAND    FAIR      70  48  46 CALM      29.98R
WARROAD        FAIR      70  55  60 E3        29.99S
ROSEAU         FAIR      75  57  53 CALM      29.98R
HALLOCK        FAIR      79  54  41 SE9       29.94R
THF RVR FALLS  FAIR      75  54  47 S7        29.99R
BAUDETTE       FAIR      75  51  43 CALM      29.99R
WASKISH          N/A     70  55  60 CALM      30.00S
CROOKSTON      FAIR      75  55  50 SE8       29.96S
STEPHEN NDAWN    N/A     79  54  41 SE8         N/A
GREENBUSH NDAW   N/A     75  55  50 S5          N/A
$$
  *****  WEATHER ACROSS CENTRAL AND WEST MINNESOTA  *****

CITY           SKY/WX    TMP DP  RH WIND       PRES   REMARKS
FOSSTON        FAIR      75  50  41 S5        29.99S
BEMIDJI        MOCLDY    71  55  56 SE7       30.01R
PARK RAPIDS    FAIR      73  55  53 S6        30.01R
ELBOW LAKE     FAIR      73  55  52 SE10      29.98R
WADENA         FAIR      70  55  60 E5        30.01S
DETROIT LAKES  FAIR      72  54  53 SE6       30.00S
MOORHEAD       FAIR      75  55  50 E8        29.95R
FERGUS FALLS   FAIR      75  54  46 SE10      29.92S
MORRIS MN      FAIR      75  55  50 E14       29.96R
STAPLES        FAIR      70  54  56 CALM      30.02S
$$
  *****  WEATHER ELSEWHERE ACROSS MINNESOTA  *****

CITY           SKY/WX    TMP DP  RH WIND       PRES   REMARKS
DULUTH         FAIR      74  53  48 SW8       30.02R
INTRNTL FALLS  FAIR      74  46  36 E5        29.99R
ELY            FAIR      73  37  27 CALM      30.01R
CLOQUET        FAIR      70  52  52 SW6       30.03S
WHEATON        FAIR      79  48  34 SE5       29.96R
BRAINERD       MOCLDY    72  54  53 S5        30.03R
HIBBING        FAIR      71  52  50 W3        30.01R
ALEXANDRIA     FAIR      75  56  51 E10       30.01S
SAINT CLOUD    FAIR      73  56  54 CALM      30.01S
MINNEAPOLIS    FAIR      73  58  59 SE12      30.02S
$$

  *****  WEATHER ACROSS SOUTH DAKOTA  *****

CITY           SKY/WX    TMP DP  RH WIND       PRES   REMARKS
SIOUX FALLS    CLOUDY    75  65  70 SE10      29.93S
BROOKINGS      FAIR      77  62  59 S9        29.95S
WATERTOWN      FAIR      76  54  46 SE5       29.93F
HURON          FAIR      78  62  57 S9        29.89S
SISSETON         N/A     79  55  43 SE8       29.93S
ABERDEEN       FAIR      80  50  34 E12       29.90S
MITCHELL       FAIR      79  64  60 SE12      29.90S
PIERRE         FAIR      77  63  61 SE13      29.86F
MOBRIDGE       FAIR      77  63  61 SE6       29.86S
RAPID CITY     FAIR      69  58  67 N9        29.90F
$$

  *****  SOME WEATHER IN NEARBY STATES *****

CITY           SKY/WX    TMP DP  RH WIND       PRES   REMARKS
GLASGOW MT     FAIR      72  48  42 E6        29.90F
GREAT FALLS MT FAIR      71  45  39 E5        29.98S
CHEYENNE WY    LGT RAIN  65  42  43 SE14G24   29.97R
SCOTTSBLUFF NE FAIR      75  58  55 SE10      29.85F
OMAHA NE       FAIR      82  64  54 SE12      29.92S
DES MOINES IA  MOCLDY    76  64  66 SE7       29.99S
DAVENPORT IA   FAIR      70  60  70 NE6       30.05S
CHICAGO IL     FAIR      62  53  72 E7        30.05R
EAU CLAIRE WI  FAIR      68  57  68 S6        30.05S
LA CROSSE WI   FAIR      68  58  70 CALM      30.06R
$$

  *****  SOME NATIONAL WEATHER *****

CITY           SKY/WX    TMP DP  RH WIND       PRES   REMARKS
LA GUARDIA NY  CLOUDY    57  53  86 NE6       30.00S
RALEIGH NC     FAIR      77  69  76 S5        30.03S
ATLANTA GA     CLOUDY    71  67  87 SE6       30.07R
NEW ORLEANS LA MOCLDY    83  74  74 S8        29.97R
OKLAHOMA CITY  MOCLDY    80  65  59 S8        29.95R
ALBUQUERQUE NM FAIR      81  25  12 S22G29    29.91S
SALT LAKE CITY PTSUNNY   67  45  45 W16       29.90R
LOS ANGELES CA FAIR      64  52  64 W16       29.90S
BOISE ID       FAIR      79  44  28 N12       29.77F
SEATTLE WA     FAIR      78  51  38 N9        29.84F
$$

*** WEATHER ACROSS MANITOBA...SASKATCHEWAN AND ONTARIO ***
                ***ONTARIO***

CITY           SKY/WX    TMP DP  RH WIND       PRES   REMARKS
GERALDTON      MOCLDY    64  43  45 NE9       30.00R
THUNDER BAY    MOCLDY    73  36  25 SW8       29.94R
SIOUX LOOKOUT  MOCLDY    75  43  31 CALM      29.97R
TORONTO        DRIZZLE   59  54  82 VRB2      29.92R
BIG TROUT LK   CLEAR     46  25  42 E6        30.12S
PICKLE LAKE    MOCLDY    66  41  39 NE12      29.99R
DRYDEN         CLEAR     75  39  27 W6        29.98S
KENORA         MOCLDY    73  43  33 S6        29.99S
$$
                *** MANITOBA***

CITY           SKY/WX    TMP DP  RH WIND       PRES   REMARKS
BRANDON        CLOUDY    77  48  36 N10G17    29.90
DAUPHIN        CLOUDY    72  54  53 NE7       29.91S
ISLAND LAKE    MOSUNNY   59  36  41 NE8       30.05R
PILOT MOUND      N/A     77  46  33 SE9         N/A
THE PAS        SUNNY     70  45  40 NE7       29.98R
THOMPSON       MOSUNNY   59  32  36 E3        30.06S
WINNIPEG       PTSUNNY   79  52  38 SE14      29.92S
LYNN LAKE      SUNNY     66  37  34 S7        29.98F
CHURCHILL      PTSUNNY   34  25  69 S15       30.13F WCI  24
GILLAM         MOSUNNY   45  25  45 E5        30.13F
$$
                ***SASKATCHEWAN***

CITY           SKY/WX    TMP DP  RH WIND       PRES   REMARKS
ESTEVAN        LGT RAIN  63  54  72 W17G23    29.94R
KINDERSLEY     MOSUNNY   79  39  24 N9G17     29.91S
LLOYDMINSTER   MOSUNNY   79  39  24 VRB2      29.91S
PRINCE ALBERT  PTSUNNY   81  48  32 E8        29.92R
REGINA         MOSUNNY   70  54  56 E14       29.93R
YORKTON        CLOUDY    68  52  56 SE5       29.91S HAZE
N. BATTLEFORD  SUNNY     79  45  29 NE5       29.91F
LA RONGE       MOSUNNY   77  45  31 NE5       29.93S
SASKATOON      PTSUNNY   77  46  33 E8        29.91S
SWIFT CURRENT  MOSUNNY   72  43  35 NE7       29.92S
$$
NOTE: THESE ARE AUTOMATED STATIONS WITH LIMITED QUALITY CONTROL
      "FAIR" INDICATES FEW OR NO CLOUDS BELOW 12,000 FEET WITH NO
      SIGNIFICANT WEATHER AND/OR OBSTRUCTIONS TO VISIBILITY.
      SKY/WX - SKY CONDITION AND SIGNIFICANT WEATHER.
      TMP - AIR TEMPERATURE.    DP   - DEWPOINT TEMPERATURE.
      RH  - RELATIVE HUMIDITY.  PRES - PRESSURE.
      HX  - HEAT INDEX.         WCI  - WIND CHILL INDEX.
$




USA.gov is the U.S. government's official web portal to all federal, state and local government web resources and services.